Location: Miles
(41.4492°N, 81.6087°W)
Time: 10:23:45
(UTC+00:00)

Courier 1B - Pass Details

Date: 21 September 2024
Orbit: 962 x 1208 km, 28.3° (Epoch: 04 October)

Event Time Altitude Azimuth Distance (km) Brightness Sun altitude
Rises 16:51:00 0° 225° (SW) 3,677 10.8 48.4°
Reaches altitude 10° 16:54:19 10° 209° (SSW) 2,761 10.5 48.5°
Maximum altitude 16:59:03 21° 164° (SSE) 2,148 10.6 48.6°
Drops below altitude 10° 17:03:58 10° 119° (ESE) 2,883 10.4 48.7°
Sets 17:07:32 0° 104° (ESE) 3,889 10.8 48.8°
